Lake Superior Provincial Park, Ontario

Past 24 Hour Conditions

This table is a summary of hourly weather conditions for the past 24 hours. This summary includes the following parameters: temperature, humidity, dew point, wind speed and direction, air pressure, visibility and/or wind chill and humidex.
Date / Time
(EDT)
Conditions Temp (°F) Humidity (%) Dew Point (°F) Wind (mph) Pressure (inches) Visibility (miles)
21 August 2014
00:00 N/A 63 97 62 calm 29.9 N/A
20 August 2014
23:00 N/A 63 96 62 calm 29.9 N/A
22:00 N/A 63 96 62 E 2 29.9 N/A
21:00 N/A 64 95 62 ENE 2 29.9 N/A
20:00 N/A 64 93 62 calm 29.9 N/A
19:00 N/A 65 92 62 calm 29.9 N/A
18:00 N/A 65 90 62 E 2 29.9 N/A
17:00 N/A 66   88 62 E 2 29.9 N/A
16:00 N/A 65 91 62 calm 29.9 N/A
15:00 N/A 66   87 62 E 3 29.9 N/A
14:00 N/A 66   85 62 E 3 29.9 N/A
13:00 N/A 65 87 61 ESE 4 29.9 N/A
12:00 N/A 65 86 60 ESE 3 29.8 N/A
11:00 N/A 62 92 60 E 4 29.8 N/A
10:00 N/A 61 95 59 calm 29.8 N/A
9:00 N/A 59 96 58 calm 29.8 N/A
8:00 N/A 58   97 58 calm 29.8 N/A
7:00 N/A 58   97 57 calm 29.8 N/A
6:00 N/A 58   96 57 calm 29.8 N/A
5:00 N/A 58   97 57 ESE 3 29.8 N/A
4:00 N/A 58   96 57 calm 29.8 N/A
3:00 N/A 59 96 58 SE 6 29.8 N/A
2:00 N/A 60 97 59 SE 4 29.7 N/A
1:00 N/A 60 96 59 SE 9 29.7 N/A
00:00 N/A 60 96 59 ESE 3 29.7 N/A
N/A
Not available
 ↑ 
Highest temperature
 ↓ 
Lowest temperature

If you require additional historical weather information, please visit Climate Data Online.